Time,TemperatureF,DewpointF,PressureIn,WindDirection,WindDirectionDegrees,WindSpeedMPH,WindSpeedGustMPH,Humidity,HourlyPrecipIn,Conditions,Clouds,dailyrainin,SoftwareType,DateUTC
2013-06-18 00:01:00,62.7,60.0,29.88,West,277,0.9,1.2,91,0.00,CLR,,0.00,WeatherDisplay:10.37,2013-06-18 04:01:00,
2013-06-18 00:02:00,62.7,60.0,29.88,West,277,1.0,2.3,91,0.00,CLR,,0.00,WeatherDisplay:10.37,2013-06-18 04:02:00,
2013-06-18 00:07:00,62.6,59.9,29.88,West,277,0.0,0.0,91,0.00,CLR,,0.00,WeatherDisplay:10.37,2013-06-18 04:07:00,
2013-06-18 00:12:00,62.5,59.8,29.88,West,277,1.0,2.3,91,0.00,CLR,,0.00,WeatherDisplay:10.37,2013-06-18 04:12:00,
2013-06-18 00:17:00,62.4,60.0,29.88,NW,305,0.7,2.3,92,0.00,CLR,,0.00,WeatherDisplay:10.37,2013-06-18 04:17:00,
2013-06-18 00:22:00,62.5,59.8,29.89,NW,305,0.3,1.2,91,0.00,CLR,,0.00,WeatherDisplay:10.37,2013-06-18 04:22:00,
2013-06-18 00:27:00,62.6,59.9,29.88,NW,305,0.0,0.0,91,0.00,CLR,,0.00,WeatherDisplay:10.37,2013-06-18 04:27:00,
2013-06-18 00:32:00,62.7,60.0,29.88,NW,305,0.0,0.0,91,0.00,CLR,,0.00,WeatherDisplay:10.37,2013-06-18 04:32:00,
2013-06-18 00:37:00,62.6,59.9,29.88,NW,305,0.0,0.0,91,0.00,CLR,,0.00,WeatherDisplay:10.37,2013-06-18 04:37:00,
2013-06-18 00:42:00,62.5,59.8,29.88,NW,305,0.0,0.0,91,0.00,CLR,,0.00,WeatherDisplay:10.37,2013-06-18 04:42:00,
2013-06-18 00:47:00,62.5,59.8,29.88,NW,305,0.0,0.0,91,0.00,CLR,,0.00,WeatherDisplay:10.37,2013-06-18 04:47:00,
2013-06-18 00:52:00,62.4,59.7,29.88,NW,305,0.0,0.0,91,0.00,CLR,,0.00,WeatherDisplay:10.37,2013-06-18 04:52:00,
2013-06-18 00:57:00,62.3,59.6,29.88,NW,305,0.0,0.0,91,0.00,CLR,,0.00,WeatherDisplay:10.37,2013-06-18 04:57:00,
2013-06-18 01:02:00,62.3,59.6,29.88,NW,305,0.0,0.0,91,0.00,CLR,,0.00,WeatherDisplay:10.37,2013-06-18 05:02:00,
2013-06-18 01:07:00,62.3,59.6,29.88,NW,305,0.0,0.0,91,0.00,CLR,,0.00,WeatherDisplay:10.37,2013-06-18 05:07:00,
2013-06-18 01:12:00,62.1,59.4,29.88,NW,305,0.0,0.0,91,0.00,CLR,,0.00,WeatherDisplay:10.37,2013-06-18 05:12:00,
2013-06-18 01:17:00,62.0,59.3,29.88,NW,305,0.0,0.0,91,0.00,CLR,,0.00,WeatherDisplay:10.37,2013-06-18 05:17:00,
2013-06-18 01:22:00,61.8,59.5,29.88,NW,305,2.2,3.5,92,0.00,CLR,,0.00,WeatherDisplay:10.37,2013-06-18 05:22:00,
2013-06-18 01:27:00,61.5,59.2,29.88,NW,321,0.4,2.3,92,0.00,CLR,,0.00,WeatherDisplay:10.37,2013-06-18 05:27:00,
2013-06-18 01:32:00,61.4,58.7,29.88,NW,321,0.5,1.2,91,0.00,CLR,,0.00,WeatherDisplay:10.37,2013-06-18 05:32:00,
2013-06-18 01:37:00,61.4,58.7,29.88,NW,321,0.0,0.0,91,0.00,CLR,,0.00,WeatherDisplay:10.37,2013-06-18 05:37:00,
2013-06-18 01:42:00,61.5,58.8,29.88,NW,321,0.0,0.0,91,0.00,CLR,,0.00,WeatherDisplay:10.37,2013-06-18 05:42:00,
2013-06-18 01:47:00,61.5,58.8,29.87,NW,321,0.0,0.0,91,0.00,CLR,,0.00,WeatherDisplay:10.37,2013-06-18 05:47:00,
2013-06-18 01:52:00,61.4,58.7,29.87,NW,321,0.0,0.0,91,0.00,CLR,,0.00,WeatherDisplay:10.37,2013-06-18 05:52:00,
2013-06-18 01:57:00,61.4,58.7,29.87,NW,321,0.0,0.0,91,0.00,CLR,,0.00,WeatherDisplay:10.37,2013-06-18 05:57:00,
2013-06-18 02:02:00,61.3,58.7,29.87,NW,321,0.0,0.0,91,0.00,CLR,,0.00,WeatherDisplay:10.37,2013-06-18 06:02:00,
2013-06-18 02:07:00,61.1,58.5,29.87,NW,321,0.0,0.0,91,0.00,CLR,,0.00,WeatherDisplay:10.37,2013-06-18 06:07:00,
2013-06-18 02:12:00,61.0,58.4,29.86,NW,321,0.0,0.0,91,0.00,CLR,,0.00,WeatherDisplay:10.37,2013-06-18 06:12:00,
2013-06-18 02:17:00,60.8,58.5,29.86,NW,321,0.0,0.0,92,0.00,CLR,,0.00,WeatherDisplay:10.37,2013-06-18 06:17:00,
2013-06-18 02:22:00,60.7,58.1,29.86,NW,321,0.0,0.0,91,0.00,CLR,,0.00,WeatherDisplay:10.37,2013-06-18 06:22:00,
2013-06-18 02:27:00,60.6,58.0,29.86,NW,321,0.4,1.2,91,0.00,CLR,,0.00,WeatherDisplay:10.37,2013-06-18 06:27:00,
2013-06-18 02:32:00,60.6,58.0,29.86,NNW,335,1.7,3.5,91,0.00,CLR,,0.00,WeatherDisplay:10.37,2013-06-18 06:32:00,
2013-06-18 02:37:00,60.7,58.1,29.87,NNW,337,0.2,1.2,91,0.00,CLR,,0.00,WeatherDisplay:10.37,2013-06-18 06:37:00,
2013-06-18 02:42:00,61.0,58.0,29.87,North,355,1.2,2.3,90,0.00,CLR,,0.00,WeatherDisplay:10.37,2013-06-18 06:42:00,
2013-06-18 02:47:00,61.3,58.3,29.87,North,355,0.0,0.0,90,0.00,CLR,,0.00,WeatherDisplay:10.37,2013-06-18 06:47:00,
2013-06-18 02:52:00,61.3,58.3,29.87,North,355,0.0,0.0,90,0.00,CLR,,0.00,WeatherDisplay:10.37,2013-06-18 06:52:00,
2013-06-18 02:57:00,61.3,58.3,29.86,North,355,0.0,0.0,90,0.00,CLR,,0.00,WeatherDisplay:10.37,2013-06-18 06:57:00,
2013-06-18 03:02:00,61.2,58.6,29.86,North,355,0.0,0.0,91,0.00,CLR,,0.00,WeatherDisplay:10.37,2013-06-18 07:02:00,
2013-06-18 03:07:00,61.0,58.4,29.86,North,355,0.0,0.0,91,0.00,CLR,,0.00,WeatherDisplay:10.37,2013-06-18 07:07:00,
2013-06-18 03:12:00,60.8,58.2,29.86,North,355,0.1,0.0,91,0.00,CLR,,0.00,WeatherDisplay:10.37,2013-06-18 07:12:00,
2013-06-18 03:17:00,60.6,58.0,29.86,North,355,0.3,1.2,91,0.00,CLR,,0.00,WeatherDisplay:10.37,2013-06-18 07:17:00,
2013-06-18 03:22:00,60.5,57.9,29.86,North,355,0.5,1.2,91,0.00,CLR,,0.00,WeatherDisplay:10.37,2013-06-18 07:22:00,
2013-06-18 03:27:00,60.3,57.7,29.86,North,355,0.9,1.2,91,0.00,CLR,,0.00,WeatherDisplay:10.37,2013-06-18 07:27:00,
2013-06-18 03:32:00,60.2,57.6,29.86,North,355,1.8,2.3,91,0.00,CLR,,0.00,WeatherDisplay:10.37,2013-06-18 07:32:00,
2013-06-18 03:37:00,60.3,57.7,29.85,North,355,0.0,0.0,91,0.00,CLR,,0.00,WeatherDisplay:10.37,2013-06-18 07:37:00,
2013-06-18 03:42:00,60.6,57.7,29.85,North,355,0.0,0.0,90,0.00,CLR,,0.00,WeatherDisplay:10.37,2013-06-18 07:42:00,
2013-06-18 03:47:00,60.7,57.7,29.85,North,355,0.0,0.0,90,0.00,CLR,,0.00,WeatherDisplay:10.37,2013-06-18 07:47:00,
2013-06-18 03:52:00,60.6,57.7,29.85,North,355,0.0,0.0,90,0.00,CLR,,0.00,WeatherDisplay:10.37,2013-06-18 07:52:00,
2013-06-18 03:57:00,60.4,57.8,29.85,North,355,0.0,0.0,91,0.00,CLR,,0.00,WeatherDisplay:10.37,2013-06-18 07:57:00,
2013-06-18 04:02:00,60.2,57.6,29.85,North,355,0.1,0.0,91,0.00,CLR,,0.00,WeatherDisplay:10.37,2013-06-18 08:02:00,
2013-06-18 04:07:00,60.1,57.5,29.85,North,355,0.0,0.0,91,0.00,CLR,,0.00,WeatherDisplay:10.37,2013-06-18 08:07:00,
2013-06-18 04:12:00,60.0,57.4,29.85,North,355,0.0,0.0,91,0.00,CLR,,0.00,WeatherDisplay:10.37,2013-06-18 08:12:00,
2013-06-18 04:17:00,60.0,57.4,29.85,North,355,0.0,0.0,91,0.00,CLR,,0.00,WeatherDisplay:10.37,2013-06-18 08:17:00,
2013-06-18 04:22:00,59.9,57.3,29.85,North,355,0.0,0.0,91,0.00,CLR,,0.00,WeatherDisplay:10.37,2013-06-18 08:22:00,
2013-06-18 04:27:00,59.8,57.2,29.85,North,355,0.1,1.0,91,0.00,CLR,,0.00,WeatherDisplay:10.37,2013-06-18 08:27:00,
2013-06-18 04:32:00,59.8,57.2,29.85,North,355,0.1,1.2,91,0.00,CLR,,0.00,WeatherDisplay:10.37,2013-06-18 08:32:00,
2013-06-18 04:37:00,59.6,57.0,29.85,North,355,1.3,2.3,91,0.00,CLR,,0.00,WeatherDisplay:10.37,2013-06-18 08:37:00,
2013-06-18 04:42:00,59.5,56.9,29.85,North,355,0.8,2.3,91,0.00,CLR,,0.00,WeatherDisplay:10.37,2013-06-18 08:42:00,
2013-06-18 04:47:00,59.4,56.8,29.85,North,355,0.0,0.0,91,0.00,CLR,,0.00,WeatherDisplay:10.37,2013-06-18 08:47:00,
2013-06-18 04:52:00,59.3,56.7,29.85,North,355,0.0,0.0,91,0.00,CLR,,0.00,WeatherDisplay:10.37,2013-06-18 08:52:00,
2013-06-18 04:57:00,59.2,56.6,29.85,North,355,0.0,0.0,91,0.00,CLR,,0.00,WeatherDisplay:10.37,2013-06-18 08:57:00,
2013-06-18 05:02:00,59.1,56.5,29.85,North,355,0.0,0.0,91,0.01,RA,,0.01,WeatherDisplay:10.37,2013-06-18 09:02:00,
2013-06-18 05:07:00,59.0,56.4,29.85,North,355,0.0,0.0,91,0.01,RA,,0.01,WeatherDisplay:10.37,2013-06-18 09:07:00,
2013-06-18 05:12:00,58.9,56.3,29.85,North,355,0.0,0.0,91,0.01,,,0.01,WeatherDisplay:10.37,2013-06-18 09:12:00,
2013-06-18 05:17:00,58.8,56.2,29.85,North,355,0.8,1.2,91,0.01,CLR,,0.01,WeatherDisplay:10.37,2013-06-18 09:17:00,
2013-06-18 05:22:00,58.5,55.9,29.85,North,355,0.5,1.2,91,0.01,CLR,,0.01,WeatherDisplay:10.37,2013-06-18 09:22:00,
2013-06-18 05:27:00,58.5,55.9,29.85,North,355,0.0,0.0,91,0.01,CLR,,0.01,WeatherDisplay:10.37,2013-06-18 09:27:00,
2013-06-18 05:32:00,58.4,55.8,29.85,North,355,0.0,0.0,91,0.01,CLR,,0.01,WeatherDisplay:10.37,2013-06-18 09:32:00,
2013-06-18 05:37:00,58.3,55.7,29.86,North,355,0.0,0.0,91,0.01,CLR,,0.01,WeatherDisplay:10.37,2013-06-18 09:37:00,
2013-06-18 05:42:00,58.2,55.6,29.86,North,355,0.0,0.0,91,0.01,CLR,,0.01,WeatherDisplay:10.37,2013-06-18 09:42:00,
2013-06-18 05:47:00,58.0,55.4,29.86,North,355,0.0,0.0,91,0.01,CLR,,0.01,WeatherDisplay:10.37,2013-06-18 09:47:00,
2013-06-18 05:52:00,58.1,55.5,29.86,North,355,0.0,0.0,91,0.01,CLR,,0.01,WeatherDisplay:10.37,2013-06-18 09:52:00,
2013-06-18 05:57:00,58.4,55.5,29.86,North,355,0.0,0.0,90,0.01,CLR,,0.01,WeatherDisplay:10.37,2013-06-18 09:57:00,
2013-06-18 06:02:00,58.6,55.7,29.87,North,355,0.0,0.0,90,0.00,CLR,,0.01,WeatherDisplay:10.37,2013-06-18 10:02:00,
2013-06-18 06:07:00,58.7,55.8,29.87,North,355,0.0,0.0,90,0.00,CLR,,0.01,WeatherDisplay:10.37,2013-06-18 10:07:00,
2013-06-18 06:12:00,59.0,56.1,29.86,North,355,0.0,0.0,90,0.00,CLR,,0.01,WeatherDisplay:10.37,2013-06-18 10:12:00,
2013-06-18 06:17:00,59.2,56.3,29.87,North,355,0.0,0.0,90,0.00,CLR,,0.01,WeatherDisplay:10.37,2013-06-18 10:17:00,
2013-06-18 06:22:00,59.4,56.5,29.87,North,355,0.1,0.0,90,0.00,CLR,,0.01,WeatherDisplay:10.37,2013-06-18 10:22:00,
2013-06-18 06:27:00,59.6,56.7,29.87,North,355,0.0,0.0,90,0.00,CLR,,0.01,WeatherDisplay:10.37,2013-06-18 10:27:00,
2013-06-18 06:32:00,59.8,56.9,29.86,North,355,0.0,0.0,90,0.00,CLR,,0.01,WeatherDisplay:10.37,2013-06-18 10:32:00,
2013-06-18 06:37:00,60.0,57.1,29.87,North,355,0.0,0.0,90,0.00,CLR,,0.01,WeatherDisplay:10.37,2013-06-18 10:37:00,
2013-06-18 06:42:00,60.5,57.6,29.87,North,355,0.0,0.0,90,0.00,CLR,,0.01,WeatherDisplay:10.37,2013-06-18 10:42:00,
2013-06-18 06:47:00,61.2,58.2,29.87,North,355,0.0,0.0,90,0.00,CLR,,0.01,WeatherDisplay:10.37,2013-06-18 10:47:00,
2013-06-18 06:52:00,61.9,59.2,29.86,North,355,0.2,1.2,91,0.00,CLR,,0.01,WeatherDisplay:10.37,2013-06-18 10:52:00,
2013-06-18 06:57:00,62.4,59.7,29.87,North,355,0.1,1.2,91,0.00,CLR,,0.01,WeatherDisplay:10.37,2013-06-18 10:57:00,
2013-06-18 07:02:00,62.6,59.9,29.87,North,355,0.0,1.2,91,0.00,CLR,,0.01,WeatherDisplay:10.37,2013-06-18 11:02:00,
2013-06-18 07:07:00,62.8,60.1,29.87,North,355,0.6,2.3,91,0.00,CLR,,0.01,WeatherDisplay:10.37,2013-06-18 11:07:00,
2013-06-18 07:12:00,63.0,60.3,29.86,North,355,1.1,2.3,91,0.00,CLR,,0.01,WeatherDisplay:10.37,2013-06-18 11:12:00,
2013-06-18 07:17:00,63.4,60.7,29.86,North,355,0.1,1.2,91,0.00,CLR,,0.01,WeatherDisplay:10.37,2013-06-18 11:17:00,
2013-06-18 07:22:00,63.9,61.2,29.86,North,355,0.3,1.0,91,0.00,CLR,,0.01,WeatherDisplay:10.37,2013-06-18 11:22:00,
2013-06-18 07:27:00,64.5,61.8,29.86,North,355,1.7,3.5,91,0.00,CLR,,0.01,WeatherDisplay:10.37,2013-06-18 11:27:00,
2013-06-18 07:32:00,65.1,62.4,29.86,North,355,1.9,2.3,91,0.00,CLR,,0.01,WeatherDisplay:10.37,2013-06-18 11:32:00,
2013-06-18 07:37:00,65.6,62.9,29.87,North,355,1.4,2.3,91,0.00,CLR,,0.01,WeatherDisplay:10.37,2013-06-18 11:37:00,
2013-06-18 07:42:00,66.0,63.0,29.87,North,355,0.0,1.2,90,0.00,CLR,,0.01,WeatherDisplay:10.37,2013-06-18 11:42:00,
2013-06-18 07:47:00,66.5,63.5,29.87,North,355,0.0,0.0,90,0.00,CLR,,0.01,WeatherDisplay:10.37,2013-06-18 11:47:00,
2013-06-18 07:52:00,67.0,64.3,29.87,North,355,0.1,1.0,91,0.00,CLR,,0.01,WeatherDisplay:10.37,2013-06-18 11:52:00,
2013-06-18 07:57:00,67.6,65.2,29.87,North,355,0.8,2.3,92,0.00,CLR,,0.01,WeatherDisplay:10.37,2013-06-18 11:57:00,
2013-06-18 08:02:00,68.1,65.7,29.87,North,355,1.2,2.3,92,0.00,CLR,,0.01,WeatherDisplay:10.37,2013-06-18 12:02:00,
2013-06-18 08:07:00,69.0,66.3,29.87,North,355,1.6,3.0,91,0.00,CLR,,0.01,WeatherDisplay:10.37,2013-06-18 12:07:00,
2013-06-18 08:12:00,69.8,67.1,29.87,North,355,1.6,2.3,91,0.00,CLR,,0.01,WeatherDisplay:10.37,2013-06-18 12:12:00,
2013-06-18 08:17:00,70.7,67.3,29.87,North,355,1.2,2.3,89,0.00,CLR,,0.01,WeatherDisplay:10.37,2013-06-18 12:17:00,
2013-06-18 08:22:00,71.4,67.3,29.87,North,355,0.1,0.0,87,0.00,CLR,,0.01,WeatherDisplay:10.37,2013-06-18 12:22:00,
2013-06-18 08:27:00,71.5,67.1,29.87,North,355,0.9,2.3,86,0.00,CLR,,0.01,WeatherDisplay:10.37,2013-06-18 12:27:00,
2013-06-18 08:32:00,71.7,67.6,29.87,North,355,1.1,2.3,87,0.00,CLR,,0.01,WeatherDisplay:10.37,2013-06-18 12:32:00,
2013-06-18 08:37:00,72.4,68.0,29.87,North,355,0.6,2.3,86,0.00,CLR,,0.01,WeatherDisplay:10.37,2013-06-18 12:37:00,
2013-06-18 08:42:00,73.5,68.7,29.87,North,355,1.4,2.3,85,0.00,CLR,,0.01,WeatherDisplay:10.37,2013-06-18 12:42:00,
2013-06-18 08:47:00,74.3,68.4,29.87,North,355,0.6,1.2,82,0.00,CLR,,0.01,WeatherDisplay:10.37,2013-06-18 12:47:00,
2013-06-18 08:52:00,74.4,68.2,29.87,North,355,0.0,0.0,81,0.00,CLR,,0.01,WeatherDisplay:10.37,2013-06-18 12:52:00,
2013-06-18 08:57:00,74.2,68.7,29.87,North,355,0.0,0.0,83,0.00,CLR,,0.01,WeatherDisplay:10.37,2013-06-18 12:57:00,
2013-06-18 09:02:00,74.3,68.4,29.87,North,355,1.1,2.3,82,0.00,CLR,,0.01,WeatherDisplay:10.37,2013-06-18 13:02:00,
2013-06-18 09:07:00,74.8,68.6,29.86,North,355,0.0,0.0,81,0.00,CLR,,0.01,WeatherDisplay:10.37,2013-06-18 13:07:00,
2013-06-18 09:12:00,75.1,68.5,29.86,North,355,0.3,1.2,80,0.00,CLR,,0.01,WeatherDisplay:10.37,2013-06-18 13:12:00,
2013-06-18 09:17:00,75.7,68.7,29.86,North,355,1.2,2.3,79,0.00,CLR,,0.01,WeatherDisplay:10.37,2013-06-18 13:17:00,
2013-06-18 09:22:00,76.6,69.2,29.86,North,355,1.7,3.5,78,0.00,CLR,,0.01,WeatherDisplay:10.37,2013-06-18 13:22:00,
2013-06-18 09:27:00,77.3,69.1,29.86,NNW,333,2.1,3.5,76,0.00,CLR,,0.01,WeatherDisplay:10.37,2013-06-18 13:27:00,
2013-06-18 09:33:00,77.7,69.5,29.86,NNW,332,1.1,2.3,76,0.00,CLR,,0.01,WeatherDisplay:10.37,2013-06-18 13:33:00,
2013-06-18 09:38:00,78.0,69.4,29.86,NNW,329,1.2,2.3,75,0.00,CLR,,0.01,WeatherDisplay:10.37,2013-06-18 13:38:00,
2013-06-18 09:43:00,77.6,69.4,29.85,NNW,346,1.3,3.0,76,0.00,CLR,,0.01,WeatherDisplay:10.37,2013-06-18 13:43:00,
2013-06-18 09:48:00,78.0,69.8,29.85,North,355,2.3,3.5,76,0.00,CLR,,0.01,WeatherDisplay:10.37,2013-06-18 13:48:00,
2013-06-18 09:53:00,78.9,69.9,29.85,North,355,1.6,3.5,74,0.00,CLR,,0.01,WeatherDisplay:10.37,2013-06-18 13:53:00,
2013-06-18 09:58:00,79.8,70.4,29.85,North,360,0.0,0.0,73,0.00,CLR,,0.01,WeatherDisplay:10.37,2013-06-18 13:58:00,
2013-06-18 10:03:00,80.3,70.0,29.84,NNE,29,2.4,3.5,71,0.00,CLR,,0.01,WeatherDisplay:10.37,2013-06-18 14:03:00,
2013-06-18 10:08:00,81.0,71.1,29.84,NNE,13,1.1,2.3,72,0.00,CLR,,0.01,WeatherDisplay:10.37,2013-06-18 14:08:00,
2013-06-18 10:13:00,81.6,70.4,29.84,ENE,66,2.0,4.6,69,0.00,CLR,,0.01,WeatherDisplay:10.37,2013-06-18 14:13:00,
2013-06-18 10:18:00,82.0,66.7,29.84,NE,51,1.1,2.3,60,0.00,CLR,,0.01,WeatherDisplay:10.37,2013-06-18 14:18:00,
2013-06-18 10:23:00,82.4,65.6,29.84,NE,51,0.0,1.2,57,0.00,CLR,,0.01,WeatherDisplay:10.37,2013-06-18 14:23:00,
2013-06-18 10:28:00,81.3,65.6,29.84,West,280,1.5,3.5,59,0.00,CLR,,0.01,WeatherDisplay:10.37,2013-06-18 14:28:00,
2013-06-18 10:33:00,80.7,65.5,29.84,NNW,340,1.2,3.5,60,0.00,CLR,,0.01,WeatherDisplay:10.37,2013-06-18 14:33:00,
2013-06-18 10:38:00,81.0,64.8,29.84,NNW,329,1.0,2.3,58,0.00,CLR,,0.01,WeatherDisplay:10.37,2013-06-18 14:38:00,
2013-06-18 10:43:00,81.4,64.7,29.84,NNW,329,1.0,3.5,57,0.00,CLR,,0.01,WeatherDisplay:10.37,2013-06-18 14:43:00,
2013-06-18 10:48:00,82.0,67.2,29.84,NNW,338,2.7,3.5,61,0.00,CLR,,0.01,WeatherDisplay:10.37,2013-06-18 14:48:00,
2013-06-18 10:53:00,82.7,66.9,29.84,NNW,334,1.7,3.5,59,0.00,CLR,,0.01,WeatherDisplay:10.37,2013-06-18 14:53:00,
2013-06-18 10:58:00,83.4,67.1,29.84,NNW,333,1.2,2.3,58,0.00,CLR,,0.01,WeatherDisplay:10.37,2013-06-18 14:58:00,
2013-06-18 11:03:00,83.8,68.4,29.84,NNW,328,0.4,2.3,60,0.00,CLR,,0.01,WeatherDisplay:10.37,2013-06-18 15:03:00,
2013-06-18 11:08:00,84.4,68.0,29.84,NNW,334,2.3,4.6,58,0.00,CLR,,0.01,WeatherDisplay:10.37,2013-06-18 15:08:00,
2013-06-18 11:13:00,84.5,70.0,29.84,South,190,1.2,3.5,62,0.00,CLR,,0.01,WeatherDisplay:10.37,2013-06-18 15:13:00,
2013-06-18 11:18:00,83.4,69.9,29.84,WSW,239,0.2,2.3,64,0.00,CLR,,0.01,WeatherDisplay:10.37,2013-06-18 15:18:00,
2013-06-18 11:23:00,82.7,71.1,29.84,West,263,1.6,3.5,68,0.00,CLR,,0.01,WeatherDisplay:10.37,2013-06-18 15:23:00,
2013-06-18 11:28:00,82.2,69.7,29.83,West,265,1.0,3.5,66,0.00,CLR,,0.01,WeatherDisplay:10.37,2013-06-18 15:28:00,
2013-06-18 11:33:00,81.5,69.5,29.84,SSW,196,0.1,1.2,67,0.00,CLR,,0.01,WeatherDisplay:10.37,2013-06-18 15:33:00,
2013-06-18 11:38:00,81.4,69.8,29.83,South,171,1.3,3.5,68,0.00,CLR,,0.01,WeatherDisplay:10.37,2013-06-18 15:38:00,
2013-06-18 11:43:00,81.3,69.7,29.83,SE,130,0.9,2.3,68,0.00,CLR,,0.01,WeatherDisplay:10.37,2013-06-18 15:43:00,
2013-06-18 11:48:00,81.1,70.8,29.84,SE,135,1.5,3.5,71,0.00,CLR,,0.01,WeatherDisplay:10.37,2013-06-18 15:48:00,
2013-06-18 11:53:00,81.2,70.9,29.84,SE,130,0.7,1.2,71,0.00,CLR,,0.01,WeatherDisplay:10.37,2013-06-18 15:53:00,
2013-06-18 11:58:00,81.2,70.5,29.84,SE,143,1.4,2.3,70,0.00,CLR,,0.01,WeatherDisplay:10.37,2013-06-18 15:58:00,
2013-06-18 12:03:00,81.0,69.4,29.83,SSE,148,0.0,1.2,68,0.00,CLR,,0.01,WeatherDisplay:10.37,2013-06-18 16:03:00,
2013-06-18 12:08:00,80.7,70.4,29.83,SE,124,0.8,2.3,71,0.00,CLR,,0.01,WeatherDisplay:10.37,2013-06-18 16:08:00,
2013-06-18 12:13:00,80.4,68.9,29.83,East,81,0.2,2.3,68,0.00,CLR,,0.01,WeatherDisplay:10.37,2013-06-18 16:13:00,
2013-06-18 12:18:00,80.2,69.1,29.83,ESE,117,0.9,2.3,69,0.00,CLR,,0.01,WeatherDisplay:10.37,2013-06-18 16:18:00,
2013-06-18 12:23:00,80.2,68.2,29.83,ESE,115,0.7,2.3,67,0.00,CLR,,0.01,WeatherDisplay:10.37,2013-06-18 16:23:00,
2013-06-18 12:28:00,80.5,69.8,29.82,SSE,161,2.9,5.8,70,0.00,CLR,,0.01,WeatherDisplay:10.37,2013-06-18 16:28:00,
2013-06-18 12:33:00,80.7,69.6,29.82,SE,144,2.4,3.5,69,0.00,CLR,,0.01,WeatherDisplay:10.37,2013-06-18 16:33:00,
2013-06-18 12:38:00,80.8,70.9,29.81,ENE,60,2.1,4.6,72,0.00,CLR,,0.01,WeatherDisplay:10.37,2013-06-18 16:38:00,
2013-06-18 12:43:00,80.6,68.6,29.81,SE,140,2.7,3.5,67,0.00,CLR,,0.01,WeatherDisplay:10.37,2013-06-18 16:43:00,
2013-06-18 12:48:00,80.7,70.0,29.81,SSE,156,0.7,2.3,70,0.00,CLR,,0.01,WeatherDisplay:10.37,2013-06-18 16:48:00,
2013-06-18 12:53:00,80.9,70.2,29.80,SSE,147,0.6,3.5,70,0.00,CLR,,0.01,WeatherDisplay:10.37,2013-06-18 16:53:00,
2013-06-18 12:58:00,80.9,69.8,29.80,ESE,111,1.1,2.3,69,0.00,CLR,,0.01,WeatherDisplay:10.37,2013-06-18 16:58:00,
2013-06-18 13:03:00,80.8,69.7,29.80,East,88,0.6,2.3,69,0.00,CLR,,0.01,WeatherDisplay:10.37,2013-06-18 17:03:00,
2013-06-18 13:08:00,80.6,69.5,29.81,SE,130,0.8,1.2,69,0.00,CLR,,0.01,WeatherDisplay:10.37,2013-06-18 17:08:00,
2013-06-18 13:13:00,80.2,69.5,29.81,SSE,158,1.0,3.5,70,0.00,CLR,,0.01,WeatherDisplay:10.37,2013-06-18 17:13:00,
2013-06-18 13:18:00,79.9,69.7,29.81,SSE,161,0.6,2.3,71,0.00,CLR,,0.01,WeatherDisplay:10.37,2013-06-18 17:18:00,
2013-06-18 13:23:00,79.7,70.3,29.81,SSE,153,0.6,1.2,73,0.00,CLR,,0.01,WeatherDisplay:10.37,2013-06-18 17:23:00,
2013-06-18 13:28:00,79.4,70.0,29.82,SSE,153,0.6,2.3,73,0.00,CLR,,0.01,WeatherDisplay:10.37,2013-06-18 17:28:00,
2013-06-18 13:33:00,79.0,69.2,29.82,SSE,147,0.4,1.2,72,0.00,CLR,,0.01,WeatherDisplay:10.37,2013-06-18 17:33:00,
2013-06-18 13:38:00,78.7,69.7,29.82,SE,126,0.1,1.2,74,0.00,CLR,,0.01,WeatherDisplay:10.37,2013-06-18 17:38:00,
2013-06-18 13:43:00,78.2,69.6,29.82,SE,136,0.0,0.0,75,0.00,CLR,,0.01,WeatherDisplay:10.37,2013-06-18 17:43:00,
2013-06-18 13:48:00,77.8,70.4,29.82,SSW,212,0.8,2.3,78,0.00,CLR,,0.01,WeatherDisplay:10.37,2013-06-18 17:48:00,
2013-06-18 13:53:00,77.1,70.1,29.82,SSW,212,0.0,0.0,79,0.00,CLR,,0.01,WeatherDisplay:10.37,2013-06-18 17:53:00,
2013-06-18 13:58:00,76.7,69.7,29.82,SSW,212,0.0,0.0,79,0.00,CLR,,0.01,WeatherDisplay:10.37,2013-06-18 17:58:00,
2013-06-18 14:03:00,76.4,70.1,29.82,SSW,212,0.0,0.0,81,0.00,CLR,,0.01,WeatherDisplay:10.37,2013-06-18 18:03:00,
2013-06-18 14:08:00,75.9,70.4,29.82,SSW,212,0.0,1.2,83,0.00,CLR,,0.01,WeatherDisplay:10.37,2013-06-18 18:08:00,
2013-06-18 14:13:00,75.5,70.3,29.81,SSW,212,0.3,1.2,84,0.00,CLR,,0.01,WeatherDisplay:10.37,2013-06-18 18:13:00,
2013-06-18 14:18:00,75.3,70.5,29.80,SSW,212,0.4,1.2,85,0.00,CLR,,0.01,WeatherDisplay:10.37,2013-06-18 18:18:00,
2013-06-18 14:23:00,75.0,70.9,29.81,NNW,327,2.8,3.5,87,0.00,CLR,,0.01,WeatherDisplay:10.37,2013-06-18 18:23:00,
2013-06-18 14:28:00,75.1,71.6,29.80,NNW,332,0.5,2.3,89,0.00,CLR,,0.01,WeatherDisplay:10.37,2013-06-18 18:28:00,
2013-06-18 14:33:00,75.3,71.5,29.80,NNW,328,1.0,2.3,88,0.01,RA,,0.02,WeatherDisplay:10.37,2013-06-18 18:33:00,
2013-06-18 14:38:00,75.5,71.7,29.79,NNW,329,0.1,1.2,88,0.01,RA,,0.02,WeatherDisplay:10.37,2013-06-18 18:38:00,
2013-06-18 14:43:00,75.8,72.3,29.79,NNW,329,0.1,1.2,89,0.01,CLR,,0.02,WeatherDisplay:10.37,2013-06-18 18:43:00,
2013-06-18 14:48:00,76.2,72.7,29.78,SE,136,0.7,2.3,89,0.01,CLR,,0.02,WeatherDisplay:10.37,2013-06-18 18:48:00,
2013-06-18 14:53:00,76.5,73.0,29.78,SE,144,1.9,3.5,89,0.01,CLR,,0.02,WeatherDisplay:10.37,2013-06-18 18:53:00,
2013-06-18 14:58:00,76.5,71.3,29.78,WSW,238,0.8,3.5,84,0.01,CLR,,0.02,WeatherDisplay:10.37,2013-06-18 18:58:00,
2013-06-18 15:03:00,76.4,70.9,29.78,South,178,0.7,1.2,83,0.01,CLR,,0.02,WeatherDisplay:10.37,2013-06-18 19:03:00,
2013-06-18 15:08:00,76.4,71.2,29.78,South,178,0.0,0.0,84,0.01,CLR,,0.02,WeatherDisplay:10.37,2013-06-18 19:08:00,
2013-06-18 15:13:00,76.2,71.0,29.78,SSE,158,0.7,2.3,84,0.01,CLR,,0.02,WeatherDisplay:10.37,2013-06-18 19:13:00,
2013-06-18 15:18:00,76.1,70.9,29.78,SSE,158,0.1,1.2,84,0.01,CLR,,0.02,WeatherDisplay:10.37,2013-06-18 19:18:00,
2013-06-18 15:23:00,75.7,70.5,29.78,WSW,240,1.1,2.3,84,0.01,CLR,,0.02,WeatherDisplay:10.37,2013-06-18 19:23:00,
2013-06-18 15:28:00,75.3,70.1,29.78,SSE,159,1.3,2.3,84,0.01,CLR,,0.02,WeatherDisplay:10.37,2013-06-18 19:28:00,
2013-06-18 15:33:00,74.9,70.1,29.78,SSE,159,0.2,1.2,85,0.00,CLR,,0.02,WeatherDisplay:10.37,2013-06-18 19:33:00,
2013-06-18 15:38:00,74.4,69.9,29.78,South,190,0.0,0.0,86,0.00,CLR,,0.02,WeatherDisplay:10.37,2013-06-18 19:38:00,
2013-06-18 15:43:00,74.1,69.6,29.79,South,191,0.6,1.2,86,0.00,CLR,,0.02,WeatherDisplay:10.37,2013-06-18 19:43:00,
2013-06-18 15:48:00,74.0,69.9,29.80,WSW,256,0.2,1.2,87,0.00,CLR,,0.02,WeatherDisplay:10.37,2013-06-18 19:48:00,
2013-06-18 15:53:00,73.9,69.8,29.80,WSW,256,0.0,0.0,87,0.00,CLR,,0.02,WeatherDisplay:10.37,2013-06-18 19:53:00,
2013-06-18 15:58:00,73.9,70.1,29.80,WSW,256,0.3,1.2,88,0.00,CLR,,0.02,WeatherDisplay:10.37,2013-06-18 19:58:00,
2013-06-18 16:03:00,73.8,70.0,29.80,WSW,256,0.1,1.2,88,0.00,CLR,,0.02,WeatherDisplay:10.37,2013-06-18 20:03:00,
2013-06-18 16:08:00,73.7,69.6,29.80,WSW,256,0.0,0.0,87,0.00,CLR,,0.02,WeatherDisplay:10.37,2013-06-18 20:08:00,
2013-06-18 16:13:00,73.6,69.8,29.80,WSW,256,0.3,1.2,88,0.00,CLR,,0.02,WeatherDisplay:10.37,2013-06-18 20:13:00,
2013-06-18 16:18:00,73.5,70.1,29.80,WSW,256,0.2,1.2,89,0.00,CLR,,0.02,WeatherDisplay:10.37,2013-06-18 20:18:00,
2013-06-18 16:23:00,73.4,70.3,29.80,SW,236,0.3,1.2,90,0.00,CLR,,0.02,WeatherDisplay:10.37,2013-06-18 20:23:00,
2013-06-18 16:28:00,73.3,70.2,29.79,SSE,150,0.1,1.2,90,0.00,CLR,,0.02,WeatherDisplay:10.37,2013-06-18 20:28:00,
2013-06-18 16:33:00,73.2,70.1,29.79,SSE,150,0.1,1.2,90,0.00,CLR,,0.02,WeatherDisplay:10.37,2013-06-18 20:33:00,
2013-06-18 16:38:00,73.2,70.1,29.79,SSE,150,0.0,1.2,90,0.00,CLR,,0.02,WeatherDisplay:10.37,2013-06-18 20:38:00,
2013-06-18 16:43:00,73.2,70.1,29.79,SSE,156,0.1,2.3,90,0.00,CLR,,0.02,WeatherDisplay:10.37,2013-06-18 20:43:00,
2013-06-18 16:48:00,73.1,70.0,29.78,SSE,156,0.0,0.0,90,0.00,CLR,,0.02,WeatherDisplay:10.37,2013-06-18 20:48:00,
2013-06-18 16:53:00,73.1,70.0,29.78,East,93,0.0,1.2,90,0.00,CLR,,0.02,WeatherDisplay:10.37,2013-06-18 20:53:00,
2013-06-18 16:58:00,73.1,70.0,29.79,NE,34,0.1,0.0,90,0.00,CLR,,0.02,WeatherDisplay:10.37,2013-06-18 20:58:00,
2013-06-18 17:03:00,73.0,68.9,29.79,West,269,1.7,3.5,87,0.00,CLR,,0.02,WeatherDisplay:10.37,2013-06-18 21:03:00,
2013-06-18 17:08:00,72.8,68.0,29.79,WSW,248,0.0,1.2,85,0.00,CLR,,0.02,WeatherDisplay:10.37,2013-06-18 21:08:00,
2013-06-18 17:13:00,72.7,67.2,29.79,WSW,248,0.0,0.0,83,0.00,CLR,,0.02,WeatherDisplay:10.37,2013-06-18 21:13:00,
2013-06-18 17:18:00,72.6,67.5,29.79,WSW,248,0.0,0.0,84,0.00,CLR,,0.02,WeatherDisplay:10.37,2013-06-18 21:18:00,
2013-06-18 17:23:00,72.6,67.1,29.79,WSW,248,0.0,0.0,83,0.00,CLR,,0.02,WeatherDisplay:10.37,2013-06-18 21:23:00,
2013-06-18 17:28:00,72.6,67.5,29.79,WSW,248,0.0,0.0,84,0.00,CLR,,0.02,WeatherDisplay:10.37,2013-06-18 21:28:00,
2013-06-18 17:33:00,72.5,67.7,29.80,WSW,248,0.5,1.2,85,0.00,CLR,,0.02,WeatherDisplay:10.37,2013-06-18 21:33:00,
2013-06-18 17:38:00,72.4,68.3,29.80,WSW,248,0.7,1.2,87,0.00,CLR,,0.02,WeatherDisplay:10.37,2013-06-18 21:38:00,
2013-06-18 17:43:00,72.3,68.5,29.80,ENE,57,2.1,3.5,88,0.00,CLR,,0.02,WeatherDisplay:10.37,2013-06-18 21:43:00,
2013-06-18 17:48:00,71.7,65.2,29.81,NNE,12,4.0,11.5,80,0.00,CLR,,0.02,WeatherDisplay:10.37,2013-06-18 21:48:00,
2013-06-18 17:53:00,70.6,63.8,29.81,NE,40,5.2,6.9,79,0.00,CLR,,0.02,WeatherDisplay:10.37,2013-06-18 21:53:00,
2013-06-18 17:58:00,69.6,63.2,29.82,NNE,15,4.4,6.9,80,0.01,RA,,0.03,WeatherDisplay:10.37,2013-06-18 21:58:00,
2013-06-18 18:03:00,68.5,63.1,29.82,WNW,290,4.1,4.6,83,0.05,RA,,0.07,WeatherDisplay:10.37,2013-06-18 22:03:00,
2013-06-18 18:08:00,66.9,62.9,29.82,WNW,296,1.2,3.5,87,0.09,RA,,0.11,WeatherDisplay:10.37,2013-06-18 22:08:00,
2013-06-18 18:13:00,66.0,62.7,29.82,South,180,2.5,3.5,89,0.13,RA,,0.15,WeatherDisplay:10.37,2013-06-18 22:13:00,
2013-06-18 18:18:00,65.3,62.3,29.82,West,275,2.4,3.5,90,0.15,RA,,0.17,WeatherDisplay:10.37,2013-06-18 22:18:00,
2013-06-18 18:23:00,65.1,62.4,29.82,SE,128,0.1,1.2,91,0.18,RA,,0.20,WeatherDisplay:10.37,2013-06-18 22:23:00,
2013-06-18 18:28:00,65.0,62.3,29.81,SE,128,0.0,0.0,91,0.20,RA,,0.22,WeatherDisplay:10.37,2013-06-18 22:28:00,
2013-06-18 18:33:00,65.0,62.3,29.82,NNW,328,3.1,3.5,91,0.23,RA,,0.25,WeatherDisplay:10.37,2013-06-18 22:33:00,
2013-06-18 18:38:00,65.0,62.3,29.82,NNW,344,2.0,3.5,91,0.25,RA,,0.27,WeatherDisplay:10.37,2013-06-18 22:38:00,
2013-06-18 18:43:00,65.0,62.3,29.82,NNW,340,1.0,2.3,91,0.26,RA,,0.29,WeatherDisplay:10.37,2013-06-18 22:43:00,
2013-06-18 18:48:00,65.1,62.4,29.83,NNE,22,1.2,3.5,91,0.28,RA,,0.30,WeatherDisplay:10.37,2013-06-18 22:48:00,
2013-06-18 18:53:00,65.0,62.3,29.82,NNE,22,0.0,1.2,91,0.30,RA,,0.32,WeatherDisplay:10.37,2013-06-18 22:53:00,
2013-06-18 18:58:00,64.9,62.2,29.83,NNE,22,1.5,2.3,91,0.31,RA,,0.34,WeatherDisplay:10.37,2013-06-18 22:58:00,
2013-06-18 19:03:00,65.0,62.3,29.82,North,5,1.5,3.5,91,0.27,RA,,0.34,WeatherDisplay:10.37,2013-06-18 23:03:00,
2013-06-18 19:08:00,64.9,62.2,29.82,North,355,2.3,3.5,91,0.23,,,0.34,WeatherDisplay:10.37,2013-06-18 23:08:00,
2013-06-18 19:13:00,64.8,62.1,29.82,North,355,0.6,3.5,91,0.19,CLR,,0.34,WeatherDisplay:10.37,2013-06-18 23:13:00,
2013-06-18 19:18:00,64.7,62.0,29.82,North,355,0.1,1.2,91,0.18,RA,,0.35,WeatherDisplay:10.37,2013-06-18 23:18:00,
2013-06-18 19:23:00,64.7,62.0,29.82,North,355,1.5,2.3,91,0.15,RA,,0.35,WeatherDisplay:10.37,2013-06-18 23:23:00,
2013-06-18 19:28:00,64.5,61.8,29.82,NNW,331,0.5,2.3,91,0.13,CLR,,0.35,WeatherDisplay:10.37,2013-06-18 23:28:00,
2013-06-18 19:33:00,64.5,61.8,29.82,NNW,331,0.0,0.0,91,0.10,CLR,,0.35,WeatherDisplay:10.37,2013-06-18 23:33:00,
2013-06-18 19:38:00,64.5,61.8,29.82,NNW,331,0.0,0.0,91,0.08,CLR,,0.35,WeatherDisplay:10.37,2013-06-18 23:38:00,
2013-06-18 19:44:00,64.6,61.9,29.82,NNW,331,0.0,0.0,91,0.07,CLR,,0.35,WeatherDisplay:10.37,2013-06-18 23:44:00,
2013-06-18 19:49:00,64.6,61.9,29.82,NNW,331,0.0,0.0,91,0.06,RA,,0.36,WeatherDisplay:10.37,2013-06-18 23:49:00,
2013-06-18 19:54:00,64.6,61.9,29.82,NNW,331,0.0,0.0,91,0.04,RA,,0.36,WeatherDisplay:10.37,2013-06-18 23:54:00,
2013-06-18 19:59:00,64.7,61.7,29.82,NNE,22,1.7,2.3,90,0.02,,,0.36,WeatherDisplay:10.37,2013-06-18 23:59:00,
2013-06-18 20:04:00,64.8,61.8,29.82,ENE,57,2.0,3.5,90,0.02,CLR,,0.36,WeatherDisplay:10.37,2013-06-19 00:04:00,
2013-06-18 20:09:00,64.8,62.1,29.82,NE,38,2.2,3.5,91,0.02,CLR,,0.36,WeatherDisplay:10.37,2013-06-19 00:09:00,
2013-06-18 20:14:00,64.7,62.0,29.82,North,355,0.7,2.3,91,0.02,CLR,,0.36,WeatherDisplay:10.37,2013-06-19 00:14:00,
2013-06-18 20:19:00,64.6,61.9,29.83,North,355,0.6,2.0,91,0.01,CLR,,0.36,WeatherDisplay:10.37,2013-06-19 00:19:00,
2013-06-18 20:24:00,64.6,61.9,29.83,North,355,1.4,3.5,91,0.01,CLR,,0.36,WeatherDisplay:10.37,2013-06-19 00:24:00,
2013-06-18 20:29:00,64.6,61.9,29.82,NNE,33,0.9,2.3,91,0.01,CLR,,0.36,WeatherDisplay:10.37,2013-06-19 00:29:00,
2013-06-18 20:34:00,64.6,61.9,29.83,North,10,3.2,4.6,91,0.01,CLR,,0.36,WeatherDisplay:10.37,2013-06-19 00:34:00,
2013-06-18 20:39:00,64.5,61.8,29.84,NNE,15,2.4,4.6,91,0.01,CLR,,0.36,WeatherDisplay:10.37,2013-06-19 00:39:00,
2013-06-18 20:44:00,64.4,61.7,29.84,NE,40,2.2,3.5,91,0.01,CLR,,0.36,WeatherDisplay:10.37,2013-06-19 00:44:00,
2013-06-18 20:49:00,64.3,61.6,29.83,NE,50,1.1,2.3,91,0.00,CLR,,0.36,WeatherDisplay:10.37,2013-06-19 00:49:00,
2013-06-18 20:54:00,64.3,61.6,29.83,NE,49,0.6,3.5,91,0.00,CLR,,0.36,WeatherDisplay:10.37,2013-06-19 00:54:00,
2013-06-18 20:59:00,64.2,61.5,29.83,NE,44,2.6,3.5,91,0.00,CLR,,0.36,WeatherDisplay:10.37,2013-06-19 00:59:00,
2013-06-18 21:04:00,64.1,61.4,29.83,NNE,12,1.7,2.3,91,0.00,CLR,,0.36,WeatherDisplay:10.37,2013-06-19 01:04:00,
2013-06-18 21:09:00,64.0,61.3,29.84,North,350,1.0,3.5,91,0.00,CLR,,0.36,WeatherDisplay:10.37,2013-06-19 01:09:00,
2013-06-18 21:14:00,63.9,61.2,29.84,North,355,1.6,3.5,91,0.00,CLR,,0.36,WeatherDisplay:10.37,2013-06-19 01:14:00,
2013-06-18 21:19:00,63.8,61.1,29.84,NNE,19,2.3,4.6,91,0.00,CLR,,0.36,WeatherDisplay:10.37,2013-06-19 01:19:00,
2013-06-18 21:24:00,63.6,61.2,29.83,NNE,19,0.6,3.5,92,0.00,CLR,,0.36,WeatherDisplay:10.37,2013-06-19 01:24:00,
2013-06-18 21:29:00,63.5,60.8,29.84,North,5,3.0,3.5,91,0.00,CLR,,0.36,WeatherDisplay:10.37,2013-06-19 01:29:00,
2013-06-18 21:34:00,63.3,60.6,29.84,North,351,2.4,4.6,91,0.00,CLR,,0.36,WeatherDisplay:10.37,2013-06-19 01:34:00,
2013-06-18 21:39:00,63.3,60.6,29.85,North,355,1.4,3.5,91,0.00,CLR,,0.36,WeatherDisplay:10.37,2013-06-19 01:39:00,
2013-06-18 21:44:00,63.2,60.5,29.85,NW,324,3.1,4.0,91,0.00,CLR,,0.36,WeatherDisplay:10.37,2013-06-19 01:44:00,
2013-06-18 21:49:00,63.2,60.5,29.85,NNW,335,2.3,3.5,91,0.00,CLR,,0.36,WeatherDisplay:10.37,2013-06-19 01:49:00,
2013-06-18 21:54:00,63.1,60.7,29.85,NNW,328,2.9,5.8,92,0.00,CLR,,0.36,WeatherDisplay:10.37,2013-06-19 01:54:00,
2013-06-18 21:59:00,63.0,60.6,29.85,NNW,343,4.6,5.8,92,0.00,CLR,,0.36,WeatherDisplay:10.37,2013-06-19 01:59:00,
2013-06-18 22:04:00,62.9,60.5,29.85,NNE,19,4.0,5.8,92,0.00,CLR,,0.36,WeatherDisplay:10.37,2013-06-19 02:04:00,
2013-06-18 22:09:00,62.7,60.3,29.85,North,355,4.9,6.9,92,0.00,CLR,,0.36,WeatherDisplay:10.37,2013-06-19 02:09:00,
2013-06-18 22:14:00,62.6,60.2,29.86,NW,325,4.2,4.2,92,0.00,CLR,,0.36,WeatherDisplay:10.37,2013-06-19 02:14:00,
2013-06-18 22:19:00,62.5,60.1,29.86,NNW,335,2.4,4.6,92,0.00,CLR,,0.36,WeatherDisplay:10.37,2013-06-19 02:19:00,
2013-06-18 22:24:00,62.3,59.9,29.86,North,5,2.9,5.8,92,0.00,CLR,,0.36,WeatherDisplay:10.37,2013-06-19 02:24:00,
2013-06-18 22:29:00,62.3,59.9,29.86,North,360,4.0,4.6,92,0.00,CLR,,0.36,WeatherDisplay:10.37,2013-06-19 02:29:00,
2013-06-18 22:34:00,62.2,59.8,29.86,NNW,344,5.7,8.1,92,0.00,CLR,,0.36,WeatherDisplay:10.37,2013-06-19 02:34:00,
2013-06-18 22:39:00,62.3,59.9,29.86,NNW,343,5.1,6.9,92,0.00,CLR,,0.36,WeatherDisplay:10.37,2013-06-19 02:39:00,
2013-06-18 22:44:00,62.2,59.8,29.86,NNE,15,4.2,5.8,92,0.00,CLR,,0.36,WeatherDisplay:10.37,2013-06-19 02:44:00,
2013-06-18 22:49:00,62.2,59.8,29.87,NNE,22,2.7,6.9,92,0.00,CLR,,0.36,WeatherDisplay:10.37,2013-06-19 02:49:00,
2013-06-18 22:54:00,62.2,59.8,29.87,NNW,332,4.9,6.9,92,0.00,CLR,,0.36,WeatherDisplay:10.37,2013-06-19 02:54:00,
2013-06-18 22:59:00,62.2,59.8,29.87,ENE,57,4.1,5.8,92,0.00,CLR,,0.36,WeatherDisplay:10.37,2013-06-19 02:59:00,
2013-06-18 23:04:00,62.1,59.7,29.87,North,11,2.7,4.6,92,0.00,CLR,,0.36,WeatherDisplay:10.37,2013-06-19 03:04:00,
2013-06-18 23:09:00,61.9,59.5,29.87,North,360,2.5,4.0,92,0.00,CLR,,0.36,WeatherDisplay:10.37,2013-06-19 03:09:00,
2013-06-18 23:14:00,61.8,59.5,29.87,NNE,25,4.3,6.9,92,0.00,CLR,,0.36,WeatherDisplay:10.37,2013-06-19 03:14:00,
2013-06-18 23:19:00,61.6,59.3,29.87,NNW,344,3.5,5.8,92,0.00,CLR,,0.36,WeatherDisplay:10.37,2013-06-19 03:19:00,
2013-06-18 23:24:00,61.3,58.7,29.88,NNW,342,4.8,6.9,91,0.00,CLR,,0.36,WeatherDisplay:10.37,2013-06-19 03:24:00,
2013-06-18 23:29:00,61.1,58.5,29.88,North,350,3.0,5.8,91,0.00,CLR,,0.36,WeatherDisplay:10.37,2013-06-19 03:29:00,
2013-06-18 23:34:00,60.9,58.6,29.88,NNE,15,3.7,5.8,92,0.00,CLR,,0.36,WeatherDisplay:10.37,2013-06-19 03:34:00,
2013-06-18 23:39:00,60.6,58.0,29.88,North,360,4.3,4.6,91,0.00,CLR,,0.36,WeatherDisplay:10.37,2013-06-19 03:39:00,
2013-06-18 23:44:00,60.4,58.1,29.88,North,355,4.3,6.9,92,0.00,CLR,,0.36,WeatherDisplay:10.37,2013-06-19 03:44:00,
2013-06-18 23:49:00,60.3,58.0,29.88,NNW,348,4.8,6.0,92,0.00,CLR,,0.36,WeatherDisplay:10.37,2013-06-19 03:49:00,
2013-06-18 23:54:00,60.2,57.9,29.88,NNW,336,4.7,6.9,92,0.00,CLR,,0.36,WeatherDisplay:10.37,2013-06-19 03:54:00,
2013-06-18 23:59:00,60.2,57.9,29.88,NNW,348,1.9,3.5,92,0.00,CLR,,0.36,WeatherDisplay:10.37,2013-06-19 03:59:00,